Theta_e
301 302 302 303 303 304 304 304 304 303 303 303 303 303 303 303 303 304 304 305 304 304 304 304 303 303 303 302 300 300 300 299 303 307 307 306 306 304 304 303 302 302 303 305 307 310 313 314 316 314 313 313 313 314 315 317 318 318 318 317 316 317 318 319 321 321 322 322 323 324 324 324 322 323 323 323 322 322 322 322 324 326 326 327 333 342 341 336
300 300 301 302 303 303 303 303 302 302 302 302 302 302 302 302 303 303 303 304 304 304 304 304 303 303 303 302 300 300 299 301 306 307 307 306 304 305 305 304 302 301 301 307 310 313 314 315 316 314 313 314 314 314 315 316 317 318 318 317 317 318 320 321 322 322 322 322 323 324 324 324 323 323 324 322 323 322 322 322 323 325 327 330 335 341 340 337
300 300 301 302 302 302 302 301 301 301 302 301 301 301 301 301 302 302 302 302 302 303 303 303 303 302 301 300 299 298 301 305 308 309 307 305 305 305 304 303 303 302 302 308 313 314 315 317 317 314 313 314 314 314 315 316 317 319 319 317 318 319 320 321 322 322 322 322 323 324 323 324 323 322 322 322 322 322 322 322 324 326 327 330 336 343 342 340
299 299 299 301 301 301 301 301 301 302 302 301 301 301 301 301 302 302 302 301 301 301 301 301 301 300 298 299 298 298 304 308 310 312 309 306 307 305 303 302 303 304 306 310 313 314 315 317 318 315 313 314 314 315 315 315 317 318 318 317 319 320 320 321 321 322 322 322 323 323 323 323 323 323 322 322 322 321 323 323 323 325 326 330 337 343 343 343
300 300 300 300 301 301 301 302 302 302 302 302 301 302 303 302 303 302 302 302 301 301 301 300 300 299 299 299 299 300 306 310 312 314 310 307 307 304 302 302 303 305 307 310 312 315 315 316 318 316 314 314 314 314 315 316 317 318 318 318 319 320 319 320 322 321 321 321 322 322 322 322 323 323 322 322 321 321 323 323 322 324 324 330 338 342 344 345
301 301 300 301 301 301 302 302 302 302 302 302 302 302 303 303 303 303 303 302 302 302 302 301 301 301 300 300 301 303 307 307 310 312 309 306 304 302 301 302 304 305 307 309 311 315 316 316 317 315 314 314 314 313 315 316 317 316 317 318 319 319 319 319 321 320 320 321 322 322 321 322 322 323 323 323 321 322 322 322 322 323 323 328 334 339 343 347
301 301 301 301 302 302 302 302 302 302 302 303 302 302 303 303 303 303 303 303 303 303 303 303 302 302 302 302 304 305 307 307 307 308 306 304 302 301 300 301 305 306 307 309 312 315 316 316 316 315 313 313 313 314 314 316 316 316 316 318 318 319 319 319 320 320 320 321 321 321 321 322 321 322 321 322 322 321 322 322 321 322 325 327 331 337 342 347
301 301 302 301 301 302 302 302 302 301 302 303 302 302 303 303 303 303 303 303 303 303 303 303 303 302 302 303 305 306 307 307 307 306 305 303 301 301 300 302 306 306 307 308 311 314 315 315 314 314 313 312 313 313 314 315 315 316 315 318 318 318 319 318 319 320 320 320 321 321 321 322 321 321 321 322 322 321 321 321 322 322 323 326 330 335 343 348
302 302 302 302 302 302 302 302 302 302 303 303 303 302 302 302 302 302 303 302 302 303 303 303 303 302 302 304 305 306 307 306 305 305 304 302 301 302 301 303 305 305 306 308 310 311 313 315 314 314 312 312 313 313 315 314 314 316 316 318 318 318 319 318 319 319 320 320 321 320 320 321 320 320 320 321 322 320 321 320 321 324 323 325 327 335 344 348
302 302 302 302 302 302 302 302 302 302 303 303 302 302 300 300 300 301 302 302 302 302 302 302 302 302 303 304 305 306 307 305 304 304 303 302 302 303 303 304 305 305 305 306 308 310 312 313 313 313 312 313 314 313 314 314 314 316 316 317 317 318 317 318 318 319 319 319 319 320 319 320 320 320 319 321 321 320 322 320 321 324 324 324 325 337 347 349
301 302 302 303 303 302 302 302 302 301 302 302 302 301 301 300 299 299 300 300 300 300 300 301 301 302 303 304 305 306 306 304 303 304 303 303 303 303 303 304 304 305 305 305 307 309 310 311 313 313 313 313 313 314 315 314 315 315 316 316 316 317 317 318 318 318 318 318 319 319 319 319 319 320 319 321 321 320 320 320 322 324 326 326 326 340 349 350
302 302 302 303 302 302 302 301 301 302 302 302 301 301 301 300 298 298 298 299 299 298 300 301 301 302 303 304 305 305 305 304 304 304 304 304 304 303 303 304 304 304 305 305 306 308 310 310 311 312 314 314 313 315 315 314 315 315 315 315 315 316 316 317 318 318 318 317 318 318 317 317 318 318 319 321 320 321 320 320 325 325 326 327 328 341 349 349
302 302 302 302 302 303 302 301 301 302 302 302 302 301 300 300 299 298 298 298 298 298 300 300 300 302 303 304 305 305 304 305 305 305 304 304 303 303 303 303 303 303 304 305 305 307 309 310 310 312 313 314 314 314 314 315 315 314 315 314 314 315 314 316 318 317 317 317 319 317 314 315 318 319 319 320 319 320 321 322 326 324 326 328 329 341 348 348
302 302 302 302 303 302 302 301 301 301 301 301 301 300 301 300 298 297 298 298 298 298 298 298 300 302 303 304 304 304 305 305 304 304 304 303 303 302 303 303 303 303 304 305 304 305 308 309 310 311 312 314 315 314 313 315 314 314 314 313 314 313 313 317 318 317 316 316 319 317 313 314 318 319 319 320 319 320 320 324 326 322 326 329 329 338 347 348
300 301 301 301 302 301 300 301 301 300 300 301 300 300 300 299 297 298 298 298 298 298 298 298 300 302 303 304 304 304 304 304 304 303 303 303 303 303 303 303 303 303 304 304 304 305 307 308 309 311 312 313 314 314 314 313 313 314 313 312 313 312 313 316 317 316 316 316 318 317 313 315 318 318 319 319 319 319 320 324 325 322 327 330 330 338 345 348
299 300 300 301 301 300 300 301 300 300 300 300 300 300 300 298 297 298 298 299 298 298 298 300 302 303 303 305 305 304 304 303 303 303 303 303 303 303 303 303 304 304 304 305 304 304 307 308 309 310 311 312 312 313 314 313 313 313 312 312 312 312 313 315 316 317 317 316 317 317 315 316 317 318 320 320 319 319 320 322 324 323 327 330 333 338 345 347
300 300 300 301 301 300 300 301 300 300 301 301 300 301 300 298 298 299 300 300 300 300 300 302 304 303 304 304 304 304 304 303 302 302 303 302 303 303 303 303 304 304 305 305 304 304 306 308 308 310 310 311 311 313 314 313 312 313 313 312 312 312 312 313 315 317 317 316 316 317 316 316 317 319 320 319 320 320 320 321 323 324 324 329 333 337 344 347
300 300 300 300 301 301 301 301 301 301 302 301 301 302 301 300 301 302 303 303 302 302 303 304 303 304 305 305 304 305 304 303 302 302 302 302 302 303 303 303 303 303 304 305 304 303 306 309 309 310 310 310 311 312 314 314 312 313 313 311 311 312 312 313 315 317 317 316 316 316 316 316 317 319 320 320 320 320 320 321 324 324 323 328 333 337 343 346
300 300 300 300 300 301 301 301 301 302 302 302 302 303 302 304 305 305 305 304 304 304 305 305 304 305 306 306 305 305 304 302 302 302 301 302 302 302 303 302 303 304 304 305 304 304 306 309 309 310 310 310 310 311 313 314 313 313 314 312 311 311 312 314 315 317 317 316 316 316 316 316 316 317 319 320 321 320 321 321 323 324 323 328 333 337 342 344
300 300 300 300 300 300 301 301 301 302 302 301 302 303 305 306 306 306 305 304 304 305 305 305 305 305 306 305 305 304 304 302 301 302 301 301 302 302 303 303 304 304 304 304 304 304 306 309 309 309 310 310 311 312 312 313 314 315 314 313 312 311 312 314 316 317 317 315 316 316 317 317 317 318 318 321 321 321 323 324 324 324 323 328 332 337 341 343
300 300 300 301 300 300 301 302 302 302 301 301 302 304 305 305 304 305 305 304 304 304 304 304 304 305 305 305 305 304 304 303 302 303 301 301 302 302 303 303 304 303 304 305 305 305 306 308 309 310 310 311 311 312 312 313 314 315 315 313 312 312 313 315 316 317 317 316 316 316 317 317 318 318 318 320 321 322 326 327 325 324 325 329 331 337 340 343
299 300 300 300 300 300 301 302 302 301 301 302 303 305 304 304 303 303 303 303 304 304 304 304 304 305 305 304 304 304 304 304 303 303 302 302 301 302 303 303 303 303 304 305 305 306 307 308 309 310 311 312 312 312 313 313 313 314 314 314 313 313 313 315 316 317 317 316 316 317 316 317 319 318 318 320 321 324 327 327 325 324 327 329 330 337 341 342
299 300 300 300 300 300 301 301 301 302 303 303 304 304 303 303 303 302 302 303 304 304 305 305 305 305 305 304 304 303 304 304 303 303 303 302 302 302 302 302 302 303 304 304 305 306 307 308 309 311 310 311 312 312 313 313 313 314 314 314 313 313 313 313 314 317 317 316 316 317 316 317 318 318 319 319 321 323 326 327 326 324 328 329 331 337 341 343
299 300 301 301 300 301 301 301 302 303 304 304 303 304 303 303 302 302 303 303 303 305 306 305 305 304 305 304 303 303 304 304 304 304 303 302 302 302 302 302 302 303 304 304 304 306 307 308 310 311 311 311 312 312 312 312 313 314 314 314 314 314 313 313 315 316 316 316 316 316 314 315 317 318 318 319 320 322 326 328 326 326 328 330 332 334 338 342
300 300 300 301 301 301 300 301 304 304 303 303 304 304 303 302 302 302 303 303 305 306 306 305 304 304 304 304 303 303 303 304 303 303 303 302 302 302 302 302 302 303 304 304 304 305 307 309 310 310 311 311 311 312 312 312 313 313 314 315 315 315 315 314 316 315 314 314 316 316 312 312 317 317 318 319 319 320 325 328 327 327 329 331 331 329 335 340
301 300 300 300 300 300 300 302 304 303 303 304 304 303 303 303 303 302 302 303 306 306 305 304 304 304 304 304 303 303 302 303 304 303 302 302 302 302 301 301 302 303 304 305 305 305 307 309 310 310 311 311 311 312 312 312 313 313 314 315 316 316 315 315 315 313 312 313 315 316 312 313 315 316 318 319 319 320 324 328 328 329 330 331 330 328 334 338
301 301 300 300 300 300 301 303 303 303 303 304 303 303 303 303 302 302 304 305 307 306 306 305 305 303 303 304 304 303 302 303 303 303 302 302 302 302 301 301 302 303 305 306 305 305 307 309 310 310 311 311 311 312 312 312 313 313 315 316 316 316 315 315 314 313 313 314 315 316 314 313 313 316 318 319 318 319 324 327 329 330 331 332 331 331 335 336
301 301 301 302 301 301 301 302 302 303 303 303 303 303 303 303 303 302 305 308 308 306 306 306 305 304 303 304 303 303 303 303 303 303 303 301 302 302 301 301 302 302 304 306 305 305 307 308 309 310 311 311 311 311 312 313 313 314 315 315 315 315 315 315 314 313 313 313 313 314 314 313 313 317 320 319 318 319 323 327 328 328 330 331 333 333 334 336
301 302 302 302 302 302 302 302 302 303 303 303 303 303 303 303 302 302 304 308 308 306 307 307 305 305 305 304 304 304 304 304 303 303 303 302 301 302 301 302 303 303 304 306 305 306 306 308 309 310 310 311 311 312 312 312 313 314 315 314 314 315 315 315 314 313 313 313 312 312 313 312 312 316 318 318 317 318 322 327 327 327 328 329 332 332 334 337
302 303 303 302 304 304 304 303 303 303 303 303 303 303 303 302 303 305 307 308 307 307 308 306 305 305 305 305 305 305 304 304 304 303 303 303 302 301 302 303 303 304 305 306 306 306 307 309 310 310 311 311 311 312 312 312 313 314 314 313 314 314 315 315 314 313 313 312 312 313 313 313 312 314 317 319 318 318 324 327 327 328 328 330 332 332 333 336
302 303 303 303 304 304 305 305 304 304 303 303 303 303 303 303 304 306 309 308 307 307 306 306 305 305 304 305 305 304 303 304 304 303 303 302 302 301 302 303 304 305 306 306 306 307 308 309 310 310 311 312 312 312 312 313 312 313 314 314 313 313 314 313 313 312 312 312 312 313 314 313 311 313 318 321 320 321 325 327 327 328 328 331 332 332 333 335
302 303 303 303 304 303 305 305 304 304 304 303 304 303 303 305 306 307 308 307 307 306 305 305 305 305 304 305 305 304 303 303 303 303 303 302 302 302 302 303 304 305 306 306 306 307 308 308 309 310 311 312 312 311 312 312 311 312 314 313 313 312 313 313 312 312 312 311 313 314 314 313 312 315 319 322 322 323 324 325 327 327 329 330 330 332 333 335
303 303 303 304 304 304 305 305 304 304 304 304 304 303 303 306 308 308 307 307 307 306 305 306 305 305 305 305 305 305 304 304 303 302 302 302 302 302 302 303 304 306 306 307 307 308 309 309 308 308 310 311 311 311 311 311 311 312 313 313 313 312 313 314 313 312 312 311 313 314 314 313 313 315 319 322 324 324 324 324 325 327 328 330 328 331 334 335
303 303 304 305 305 305 305 304 304 304 303 304 304 304 305 307 309 308 307 307 306 306 306 306 306 306 306 306 306 305 305 304 303 302 303 302 302 303 303 303 304 306 307 307 307 309 309 310 309 308 310 311 311 311 311 312 311 312 313 314 313 312 313 314 313 312 312 312 313 314 315 313 314 317 319 321 324 325 325 324 324 326 327 327 328 332 334 336
304 304 305 306 305 306 305 304 304 304 304 304 303 304 307 309 308 307 307 307 306 306 306 306 307 306 306 306 305 305 305 304 303 303 303 302 303 303 303 303 304 306 307 307 308 308 309 310 309 308 310 311 311 312 312 312 311 312 314 313 313 313 313 313 312 313 313 312 313 313 315 315 317 320 320 321 325 326 325 325 323 326 326 326 328 331 334 336
305 306 306 306 305 306 305 304 304 304 304 304 304 306 308 308 307 307 307 307 305 305 306 306 307 306 306 306 305 304 304 304 304 303 303 303 303 303 303 304 305 306 307 308 308 308 308 309 309 309 310 311 311 312 312 312 312 313 313 313 315 316 315 313 312 314 314 314 315 314 313 315 318 321 321 321 324 325 325 323 324 326 326 326 328 331 334 338
305 306 307 306 305 305 305 304 304 304 304 304 304 306 307 307 307 306 307 307 306 305 306 307 307 305 305 306 304 304 303 304 304 303 303 303 303 304 304 304 306 307 307 308 308 308 308 309 309 309 309 311 312 312 312 313 313 313 312 313 315 316 316 315 313 314 314 314 315 314 313 315 315 318 321 320 322 324 324 323 324 325 325 326 329 331 336 340
305 306 307 306 305 305 305 304 304 304 304 304 305 307 307 307 308 307 307 307 306 305 306 307 307 305 304 305 305 303 303 303 303 303 303 303 304 305 304 305 306 307 308 309 309 309 308 309 310 309 310 311 312 312 312 312 313 313 314 315 316 315 314 314 315 315 315 314 315 314 313 314 314 317 320 320 320 323 323 323 324 324 325 327 329 332 336 339
306 307 308 306 305 306 305 304 305 305 304 305 306 307 307 307 308 308 308 307 305 305 306 307 307 306 305 305 305 304 303 303 302 303 303 303 304 305 304 305 307 307 308 308 309 309 309 310 310 309 310 311 311 312 312 311 312 313 314 315 316 315 314 314 315 315 314 314 315 315 314 314 316 319 321 321 322 323 323 322 322 323 324 327 329 332 335 335
308 309 308 306 305 306 305 305 305 305 305 307 307 308 307 307 308 308 308 308 306 306 306 308 308 308 307 306 305 304 303 302 302 303 304 303 304 305 305 306 307 307 308 308 309 309 310 311 310 309 311 311 311 312 312 311 312 312 313 313 315 316 316 315 315 314 313 313 314 316 316 315 317 322 323 323 323 323 325 324 323 324 326 327 331 333 334 333
308 310 309 306 304 305 305 305 306 307 307 308 308 307 307 307 307 308 309 309 308 307 307 308 308 309 308 307 306 305 304 303 303 304 304 304 305 305 305 307 307 307 308 308 309 310 310 311 311 310 310 311 311 312 312 312 312 312 312 313 314 315 315 315 315 314 313 313 314 316 315 316 318 322 324 324 323 324 327 327 325 327 328 330 332 332 331 332
309 310 310 307 304 304 305 307 308 309 308 308 308 307 307 307 307 308 309 310 309 307 307 307 308 309 308 307 307 306 305 305 305 305 305 305 305 306 306 307 308 308 308 308 310 310 311 312 311 310 310 311 312 312 312 313 313 313 313 313 315 316 315 314 314 314 313 313 314 314 314 316 320 323 324 324 323 323 326 326 326 329 329 329 330 331 331 333
309 310 309 307 305 305 307 308 308 308 308 308 308 307 308 308 308 309 309 309 310 308 307 308 309 309 309 308 308 308 307 306 306 306 306 306 306 307 307 307 308 308 307 308 310 310 311 312 311 310 311 312 312 312 313 313 313 313 314 314 315 315 316 316 316 316 314 313 313 313 313 316 321 323 323 324 324 323 325 325 325 328 329 327 330 333 334 335
308 309 309 308 306 306 308 308 308 308 308 308 308 308 308 309 309 309 309 309 310 309 307 308 309 310 310 310 310 309 309 308 307 307 307 307 308 307 308 308 308 308 308 309 311 310 311 312 312 311 311 312 313 313 313 313 312 313 313 314 315 315 316 318 318 317 315 314 314 314 313 317 323 324 323 322 323 323 323 324 325 327 327 328 331 332 334 336
308 309 309 309 307 307 308 308 308 308 308 308 308 308 309 309 309 309 309 310 311 310 309 308 309 310 311 310 310 310 309 309 309 309 308 308 309 308 308 308 309 309 309 310 311 311 311 312 312 312 312 313 313 313 313 313 313 313 313 314 314 315 316 318 317 315 314 315 314 314 314 319 325 325 323 323 322 323 325 324 324 325 327 331 331 329 333 340
308 308 307 308 308 308 309 309 308 308 308 308 308 309 309 309 309 309 309 310 311 310 310 310 310 311 311 310 311 310 310 310 309 310 309 309 309 308 308 309 309 310 310 310 311 311 312 312 313 313 313 313 313 313 313 313 313 312 313 313 314 315 316 317 315 314 314 315 314 316 318 321 323 323 323 324 324 325 327 327 327 329 331 335 336 334 338 342
307 307 306 305 307 309 309 309 309 308 308 308 308 309 309 308 309 309 308 309 310 310 310 311 311 311 311 311 312 312 312 311 310 310 311 310 309 308 308 310 310 310 310 310 311 312 312 312 313 313 313 313 313 313 313 313 313 312 312 313 313 314 316 317 316 316 317 315 314 319 322 320 322 322 323 324 324 325 328 329 331 333 334 335 335 337 341 342
306 306 306 305 305 308 308 308 308 308 307 309 309 309 309 308 308 308 308 308 308 309 310 310 310 310 310 310 311 312 313 313 311 311 312 311 310 309 309 309 310 310 310 310 311 313 314 313 313 313 313 313 313 313 313 313 313 313 313 313 313 313 315 317 317 318 319 316 317 321 322 321 323 324 325 326 325 325 328 331 333 333 334 335 335 337 340 340
304 305 306 304 304 306 307 307 308 308 308 309 309 309 309 308 308 308 307 307 307 308 309 310 309 309 309 310 312 313 314 314 313 313 313 313 311 310 310 309 310 310 310 311 312 314 315 313 313 313 313 313 313 313 314 313 313 314 313 313 314 313 315 316 317 319 320 319 320 321 322 323 325 326 329 331 330 329 329 331 333 333 334 335 336 338 340 339
302 302 303 302 303 306 307 308 309 309 310 310 309 309 309 308 309 309 308 308 307 307 308 309 309 308 309 311 313 313 313 313 313 313 314 314 311 310 311 310 310 310 311 312 313 314 314 313 313 314 313 313 314 314 313 314 314 313 313 313 313 314 314 316 318 319 319 319 321 321 321 323 326 328 332 335 335 334 333 332 333 333 334 336 338 338 339 338
299 300 300 300 302 306 308 309 310 310 310 309 309 309 309 309 310 310 310 310 309 308 309 309 309 310 311 312 313 314 313 314 314 315 316 315 313 312 312 311 311 311 311 312 314 315 314 313 314 315 313 313 314 314 314 314 314 313 313 314 313 314 314 315 317 318 318 319 320 319 319 322 325 328 333 335 335 335 334 335 336 335 335 337 338 338 339 339
298 299 299 300 302 305 307 309 310 310 310 310 310 310 310 310 310 311 311 310 310 310 310 310 311 312 313 313 314 314 314 315 315 315 315 314 314 314 313 313 313 313 312 314 315 315 315 314 314 314 313 314 314 314 314 314 314 314 314 315 315 315 315 315 316 317 318 320 319 318 321 326 327 327 330 334 335 334 334 336 336 336 336 335 337 339 338 338
Wind_Speed
11 11 11 11 12 13 13 14 14 15 15 15 15 15 15 13 14 15 15 15 15 16 16 16 18 18 19 20 19 19 18 15 13 13 10 15 17 13 13 17 19 18 16 13 11 11 11 12 13 13 13 15 17 19 21 22 23 19 13 13 15 15 17 18 16 16 13 15 18 19 23 16 11 15 16 14 13 15 17 14 12 9 9 6 1 6 8 9
12 12 12 12 13 13 14 15 15 15 15 16 16 16 15 15 15 15 15 15 15 16 16 17 17 18 20 21 22 22 20 16 17 16 14 20 17 9 8 10 13 15 14 10 9 10 11 13 13 14 15 17 18 19 20 22 24 19 11 13 16 16 19 20 19 21 19 18 19 19 26 20 14 17 16 14 14 15 17 16 15 14 12 8 7 9 9 10
13 13 13 13 13 13 14 14 14 14 15 15 15 15 14 14 15 14 15 15 16 16 16 18 18 19 21 21 22 21 20 20 20 12 15 18 10 6 10 12 11 11 9 9 10 11 12 13 13 15 17 18 19 21 21 22 22 21 17 13 16 19 21 24 25 26 25 24 22 20 25 22 18 20 18 15 15 14 15 14 15 15 15 13 12 13 11 11
13 13 13 13 13 13 13 14 14 15 16 16 16 15 14 14 14 14 14 14 15 16 16 17 18 19 19 20 19 17 20 21 11 6 12 11 6 8 15 14 11 7 5 8 11 12 13 13 14 16 17 18 21 23 21 23 20 19 20 15 18 22 21 27 31 29 28 26 25 23 22 21 20 19 16 17 15 13 14 15 15 14 16 15 16 16 13 12
13 13 13 14 13 14 14 15 15 16 17 17 16 15 15 15 15 15 14 13 14 15 16 16 17 18 19 19 15 15 18 13 2 6 9 9 10 17 17 13 11 7 6 9 11 12 14 15 15 17 18 16 19 20 20 28 24 16 20 22 25 26 21 26 32 31 31 28 27 26 23 22 21 19 18 18 16 12 13 17 17 17 19 14 15 15 14 13
14 14 14 14 14 14 15 15 16 17 17 17 16 15 15 16 16 16 15 15 14 15 16 16 17 17 19 18 15 14 13 7 4 5 12 15 18 20 15 9 9 8 8 9 10 11 14 16 17 19 18 15 18 19 20 28 26 16 18 25 30 30 24 25 29 30 32 31 28 26 24 24 23 21 21 19 18 18 15 17 16 12 13 12 13 14 14 15
15 15 15 15 15 16 16 17 17 17 16 17 17 15 15 16 16 16 16 15 14 15 15 16 16 16 18 18 16 12 13 12 8 10 16 19 21 19 13 7 8 9 8 9 9 10 14 17 20 21 17 15 18 21 22 26 27 21 17 22 27 29 29 30 32 27 27 31 32 30 23 24 25 21 22 20 20 21 18 20 16 7 6 7 11 14 14 15
16 16 16 16 16 17 17 17 18 17 16 16 17 16 16 16 17 17 18 16 15 15 14 15 15 15 15 15 15 12 13 14 8 8 15 19 17 16 14 8 7 8 8 9 8 10 13 17 21 21 16 16 19 21 24 23 23 23 20 21 23 27 29 31 34 29 26 27 29 29 22 25 30 22 24 24 21 22 21 23 18 13 13 9 11 12 13 15
17 17 17 17 17 18 18 18 19 18 16 17 17 18 18 18 19 18 18 17 16 15 15 15 15 15 12 11 13 13 11 9 6 6 9 12 10 10 11 9 8 8 9 9 9 11 13 16 19 21 18 19 20 21 25 22 17 20 23 24 22 24 25 25 32 31 27 24 22 25 23 28 32 24 26 28 25 21 21 24 18 16 19 16 13 12 14 15
17 17 17 18 18 18 18 18 19 18 17 18 19 19 20 20 20 19 18 17 16 16 16 15 15 15 12 12 13 11 9 7 6 5 6 8 7 7 9 8 9 9 10 10 11 12 14 15 16 19 20 20 21 21 25 23 17 21 25 27 25 24 25 23 27 30 25 23 24 24 23 28 33 25 20 24 28 24 21 23 18 16 19 18 15 13 14 16
17 16 17 18 19 19 19 19 19 19 19 19 20 20 21 21 21 20 18 17 18 18 17 16 15 14 12 14 15 11 9 7 5 5 6 8 10 11 11 10 11 11 11 11 12 13 14 15 15 16 15 16 20 21 24 25 23 25 23 22 26 26 26 22 20 26 24 20 27 26 22 27 31 25 20 23 25 23 25 23 18 18 19 18 16 15 15 16
17 17 17 18 19 20 20 21 20 20 20 20 21 21 21 22 21 20 19 19 19 19 17 16 14 12 12 17 22 19 14 13 11 12 13 14 15 16 15 14 14 14 13 13 13 13 13 14 16 16 13 12 15 14 18 25 27 26 20 14 20 23 24 23 20 26 24 18 25 24 19 24 25 25 27 28 23 22 26 21 19 21 20 19 18 16 16 16
18 18 18 19 19 21 21 21 20 20 20 21 22 22 22 23 21 19 18 18 18 18 17 16 14 10 14 21 24 21 18 18 18 18 18 18 18 18 18 18 17 16 16 16 15 14 13 13 15 19 20 15 13 12 10 19 25 22 19 12 14 17 18 22 22 26 25 19 24 20 15 20 22 26 30 28 24 26 26 20 22 23 19 20 18 17 17 16
18 18 19 19 19 21 22 22 22 21 22 23 24 23 23 23 20 17 17 18 18 19 18 16 13 10 17 25 23 20 19 18 19 20 19 17 18 19 18 17 18 18 17 17 16 15 14 13 14 18 23 19 16 15 10 14 19 17 17 13 12 13 14 21 22 25 23 20 26 21 14 17 18 24 31 29 25 28 27 23 26 24 20 21 18 18 17 17
18 19 19 20 20 22 23 23 22 23 24 24 23 23 23 20 17 15 16 17 17 19 18 15 12 10 18 25 21 18 18 18 20 20 17 16 16 17 17 16 18 18 17 17 16 17 16 14 15 17 20 21 19 16 10 11 14 13 14 13 13 13 12 19 23 24 22 20 26 23 13 15 18 22 29 30 27 27 26 24 25 24 22 20 19 18 17 17
19 19 20 21 21 21 22 22 22 22 24 24 23 22 21 16 14 15 16 17 17 17 14 11 10 11 15 17 13 13 15 16 17 14 12 14 15 15 14 13 14 15 16 17 15 17 17 16 18 18 18 18 15 11 8 10 12 13 14 13 15 16 13 15 20 25 24 20 24 24 15 11 15 20 26 29 29 28 27 25 25 24 23 21 20 19 18 17
19 20 20 21 21 20 21 22 21 21 23 24 23 21 18 14 14 14 14 14 14 11 9 9 9 12 15 12 9 11 13 13 12 9 10 11 13 14 12 12 13 14 15 16 16 18 19 19 16 15 16 14 13 11 10 13 14 13 14 13 16 19 16 14 16 22 26 22 22 24 19 15 14 17 24 28 30 30 28 27 26 25 23 23 21 19 19 18
19 20 20 19 20 20 21 22 21 21 24 25 22 20 16 11 10 12 12 10 6 5 8 11 9 8 14 16 13 9 8 9 9 9 10 10 12 13 13 14 13 14 17 17 19 21 20 20 16 12 13 14 14 14 14 17 18 16 15 14 15 18 20 18 15 18 26 25 23 23 20 21 20 15 20 27 28 29 28 27 26 26 25 24 23 21 20 20
20 20 20 19 19 19 20 21 21 22 24 24 21 19 14 7 8 9 8 6 7 8 7 10 15 10 11 14 16 12 10 9 8 10 12 12 12 13 13 14 13 16 18 14 17 23 19 15 16 13 13 16 19 20 19 19 20 19 18 16 16 16 17 21 18 17 24 23 22 23 19 20 22 18 19 23 26 26 27 27 25 25 25 24 24 21 21 21
21 20 21 21 20 19 19 20 22 22 23 23 20 17 14 8 8 6 7 9 14 17 17 16 19 21 22 21 19 16 14 13 12 14 14 13 13 14 14 13 15 17 17 14 14 22 20 13 14 16 18 22 24 25 24 22 21 20 19 17 19 19 15 20 21 18 22 19 19 24 20 19 22 22 21 18 23 24 24 25 25 25 25 24 24 22 22 21
21 20 20 21 21 19 18 21 23 22 22 20 14 11 12 10 9 8 9 14 18 22 28 28 25 28 29 27 22 18 17 18 18 15 13 14 14 14 14 14 14 12 15 19 16 19 20 14 16 22 22 23 24 25 23 23 24 20 17 16 18 19 16 19 22 19 22 17 17 23 23 21 21 21 22 18 18 21 22 23 25 26 25 25 25 24 23 20
21 21 20 21 20 20 20 22 23 21 18 12 7 8 10 10 10 11 14 18 21 23 27 27 25 26 26 25 22 18 19 20 19 17 13 15 17 14 13 14 13 12 15 20 16 14 15 15 21 25 22 22 23 23 23 25 26 18 13 14 15 17 16 17 22 21 19 14 14 21 22 20 20 21 22 21 18 20 24 25 25 27 27 26 27 26 23 21
22 21 21 21 21 20 21 24 20 14 10 6 6 9 11 11 11 11 13 16 19 22 23 20 18 18 18 17 15 15 19 18 18 19 16 17 19 18 15 13 13 14 16 18 16 13 12 15 23 24 22 24 24 25 25 22 21 17 13 14 12 17 18 14 18 21 18 14 14 18 18 15 18 20 20 23 22 21 24 26 25 27 27 26 28 27 24 22
21 21 21 22 22 21 22 22 14 6 4 5 8 10 10 10 9 10 13 13 15 16 14 10 8 9 10 9 8 12 17 17 17 17 17 19 20 19 17 15 14 14 16 20 22 18 15 17 22 24 24 26 25 25 26 18 15 19 19 16 13 19 23 15 15 19 17 17 17 16 13 12 16 19 18 20 23 21 22 24 24 26 27 26 28 28 26 23
22 22 22 22 22 21 22 18 7 2 5 8 9 8 7 7 6 8 10 10 10 7 7 6 3 4 4 5 5 10 14 16 18 16 15 20 22 17 15 16 13 12 17 23 23 18 17 20 22 24 24 26 25 22 24 19 13 18 20 20 18 20 24 20 19 18 13 13 17 16 12 9 15 20 19 17 19 20 20 21 23 25 27 26 27 27 26 25
23 23 22 22 21 21 19 11 3 5 9 8 6 5 5 6 6 6 6 6 5 2 6 5 4 2 3 4 5 8 12 13 16 16 14 18 22 19 13 13 12 12 15 18 16 11 14 21 22 22 24 25 24 21 24 23 15 14 19 22 22 19 22 23 21 18 11 10 15 17 13 8 12 19 20 19 20 22 20 20 22 25 26 26 26 27 27 26
23 23 23 23 21 19 14 8 7 9 8 5 4 4 5 5 5 5 4 6 4 0 1 1 2 3 4 4 4 7 5 2 8 15 16 15 20 21 14 12 12 12 12 11 11 10 14 21 19 21 23 21 20 18 22 26 17 13 18 21 20 18 21 24 21 15 11 9 13 18 16 9 8 15 20 22 22 23 22 21 22 25 26 26 26 27 28 28
24 23 22 20 17 13 12 12 10 8 6 6 5 5 5 5 5 4 5 6 1 1 0 1 0 3 6 6 9 13 9 4 4 9 15 16 18 19 15 14 14 13 13 11 10 12 16 19 18 20 21 16 17 18 22 27 20 14 19 19 16 16 18 21 17 13 12 10 10 16 18 11 8 12 18 23 24 23 24 23 22 24 28 28 27 28 28 28
23 20 17 14 12 9 6 7 8 6 5 5 4 4 3 4 5 3 5 4 1 1 1 1 1 3 6 8 12 17 15 12 6 2 10 17 19 18 13 15 16 13 14 14 11 11 14 18 18 19 17 14 18 21 22 25 21 16 19 19 15 13 14 17 14 10 12 11 11 16 19 12 9 10 15 20 22 21 21 20 20 23 28 29 28 28 28 26
19 14 11 10 10 9 5 3 4 5 4 4 3 2 4 4 3 5 5 3 1 1 2 0 3 5 7 8 9 13 14 12 8 5 10 16 19 19 14 14 15 11 11 15 13 12 12 16 16 15 15 15 18 20 21 24 24 20 18 18 15 11 11 13 11 9 10 11 13 18 21 16 11 10 12 15 17 18 17 17 19 23 28 30 28 28 29 27
14 8 7 7 7 4 3 2 2 3 5 4 2 2 5 4 4 6 4 1 1 0 1 2 4 7 8 8 6 5 8 10 9 9 10 12 15 16 12 11 12 9 9 12 11 10 11 13 12 14 19 19 18 19 20 23 26 22 14 15 14 11 9 9 9 10 10 11 14 18 22 20 13 10 11 14 18 21 20 19 21 23 26 30 30 28 29 28
10 5 5 5 5 3 3 3 3 3 4 5 3 3 4 4 4 5 4 2 2 0 1 3 5 7 8 9 8 5 6 8 9 10 9 10 10 11 11 9 8 8 8 9 10 9 9 11 12 16 21 19 15 15 16 19 22 19 13 13 15 12 9 9 10 10 11 11 14 18 19 17 13 11 12 15 20 21 20 21 23 25 27 30 31 29 28 28
6 4 5 6 8 5 4 5 3 1 2 3 4 5 4 4 4 4 5 3 1 1 3 4 7 10 8 7 8 7 8 7 10 11 11 11 10 10 13 14 13 10 7 8 10 9 8 10 15 17 16 17 16 13 13 16 18 17 14 14 15 13 11 11 11 11 11 10 13 19 17 12 11 13 15 14 19 21 22 25 28 29 30 31 31 29 28 28
4 5 5 5 8 6 4 4 3 1 2 3 4 5 5 6 5 6 7 4 2 3 7 8 10 12 9 7 6 6 8 7 10 11 10 11 9 8 11 15 18 13 5 7 10 9 9 9 14 16 13 15 17 14 14 17 17 16 15 15 14 11 10 11 10 10 11 10 13 17 14 11 9 11 16 12 13 20 22 26 30 31 32 31 30 29 28 27
4 7 6 6 9 8 5 4 3 1 2 3 5 5 5 6 5 7 7 4 2 4 9 12 11 11 7 6 7 7 5 5 10 10 8 10 8 8 9 12 16 13 7 8 8 9 11 9 14 18 16 17 17 15 17 18 16 14 14 14 13 12 9 8 8 9 9 9 11 10 9 10 5 3 12 12 10 15 20 23 27 28 30 31 28 29 29 28
5 7 3 4 9 7 5 4 2 1 3 4 5 5 5 6 6 7 5 1 1 4 10 12 8 6 4 4 7 6 2 3 9 9 7 9 9 10 10 9 13 13 9 7 5 8 9 8 17 20 17 18 18 16 17 17 14 12 14 14 13 13 11 7 8 8 8 8 9 8 9 11 6 1 9 15 14 15 17 20 23 25 30 30 27 28 29 28
4 6 4 4 8 6 3 3 3 2 3 4 5 6 6 6 6 6 3 3 5 4 7 7 2 2 4 2 4 6 6 5 8 7 6 9 8 10 12 10 12 14 12 9 5 7 7 7 17 21 17 19 21 18 17 19 17 12 12 15 14 13 11 8 7 8 10 9 7 10 11 10 9 6 9 15 16 15 17 19 20 23 27 28 26 27 28 28
5 5 4 2 6 5 2 2 2 3 4 5 7 8 7 8 9 9 7 5 4 3 5 4 1 1 2 3 4 4 8 6 7 7 6 7 5 8 12 11 11 13 14 11 6 5 7 6 14 20 18 19 20 16 13 18 22 16 12 13 12 11 11 10 8 8 10 9 7 12 14 10 9 9 11 15 15 15 17 19 20 21 23 25 27 28 27 26
5 5 5 1 5 4 1 2 2 4 5 5 7 7 7 11 15 16 13 6 1 4 4 4 3 3 2 3 4 1 4 5 7 7 5 6 4 9 14 11 10 13 13 11 6 4 6 5 9 16 18 17 15 11 10 15 20 18 14 12 10 8 9 10 8 7 9 9 8 11 12 9 8 9 14 16 15 15 16 17 19 20 21 25 27 28 27 25
6 6 3 1 5 5 2 3 5 6 5 5 8 8 9 13 15 19 18 6 4 5 3 4 5 4 2 3 5 1 3 5 7 5 4 6 5 9 15 11 8 12 13 12 8 5 5 4 7 13 16 16 12 10 12 15 16 16 14 13 11 8 8 8 8 8 9 8 8 9 10 8 7 8 13 17 16 16 16 15 15 17 21 24 25 27 28 26
8 6 1 2 6 6 5 6 6 7 5 5 7 7 10 13 13 19 18 4 6 6 5 6 7 6 5 4 4 3 2 5 7 5 4 7 7 6 11 12 9 10 12 10 8 6 4 4 7 11 12 12 13 13 16 17 17 14 13 13 13 10 10 9 9 10 10 8 7 7 8 8 7 7 9 14 16 15 17 17 14 17 23 25 25 26 27 27
11 5 3 7 9 8 8 6 4 5 5 6 8 9 11 13 12 17 15 3 6 5 5 7 7 6 6 3 3 4 4 4 5 6 5 7 9 6 10 14 13 11 11 8 7 7 4 3 7 12 11 11 16 17 17 19 20 16 13 14 13 11 10 9 9 9 10 11 9 7 7 7 8 8 6 10 14 15 18 18 16 18 24 25 25 27 28 28
10 4 5 11 10 8 7 5 6 7 6 8 11 13 15 13 11 14 14 6 3 3 3 4 5 3 3 3 4 4 3 3 7 7 5 6 8 7 10 16 15 12 10 7 6 7 4 3 6 10 10 10 15 16 16 18 18 13 11 13 13 12 11 9 8 8 8 10 10 8 7 6 8 9 6 8 13 15 18 20 18 19 23 24 24 25 26 27
9 6 6 7 6 6 6 5 8 7 8 11 13 14 14 12 11 13 13 10 5 1 3 2 4 5 5 4 6 6 3 3 7 8 5 5 8 9 12 17 15 11 8 5 3 6 4 3 5 8 9 9 11 12 13 15 14 10 11 14 15 16 16 10 7 8 7 9 10 8 8 6 7 7 7 9 12 13 16 21 22 20 21 23 24 23 23 24
12 6 4 4 3 5 5 6 8 7 9 13 14 14 13 13 15 15 13 10 7 4 2 2 4 9 6 2 5 8 5 3 5 5 4 5 6 9 13 18 15 11 9 4 3 5 4 2 4 8 9 10 10 10 11 13 13 11 13 17 17 19 19 10 5 7 8 9 10 7 6 8 8 8 10 10 12 12 14 18 21 20 21 23 24 24 24 24
10 5 6 8 5 7 8 6 7 8 9 11 12 12 13 13 16 16 13 8 7 11 10 4 4 8 6 4 6 7 6 6 7 5 5 7 6 9 14 18 16 12 8 4 7 7 3 2 6 9 9 11 11 13 15 15 15 16 19 20 18 19 19 11 5 7 8 10 8 2 5 10 11 10 11 11 11 11 12 13 15 17 20 22 22 24 24 24
8 4 6 9 7 7 5 4 7 9 10 11 9 9 13 15 14 14 11 7 8 14 11 3 0 5 7 9 8 4 3 6 9 9 8 8 6 10 16 16 14 11 9 7 11 8 2 5 10 12 12 13 14 16 19 19 18 19 21 21 18 18 19 14 8 8 9 10 7 7 8 9 9 9 11 11 11 11 11 11 13 17 20 21 21 22 22 23
7 4 5 6 5 5 6 8 11 12 12 12 9 8 14 15 13 12 10 9 11 13 8 2 3 9 12 11 8 5 2 3 8 4 6 7 7 11 14 13 12 11 9 9 11 6 2 5 9 11 12 12 14 17 18 18 18 18 20 22 20 18 18 15 11 10 10 7 6 9 9 8 7 5 6 7 8 11 12 14 16 18 20 21 22 23 23 24
8 6 5 6 6 8 11 14 16 15 11 9 8 9 14 15 15 13 8 7 10 9 5 4 8 14 15 12 9 5 3 3 2 2 4 6 9 11 11 10 11 11 10 10 9 4 2 2 6 9 12 12 12 15 19 19 17 17 19 22 20 18 19 18 14 11 8 7 6 6 7 9 8 4 4 4 2 7 13 15 16 18 19 21 23 24 24 26
8 7 8 10 10 11 14 14 13 11 7 8 8 10 13 14 16 13 8 7 9 8 6 8 11 14 14 12 11 5 1 3 3 2 5 3 7 9 8 7 8 10 10 7 5 3 0 2 6 8 8 10 10 12 18 19 18 17 18 20 20 20 21 19 16 11 5 3 2 1 3 8 7 5 6 4 1 6 11 13 16 18 19 21 23 24 24 25
7 6 8 10 9 8 10 11 10 8 6 8 10 11 13 14 15 13 9 8 8 8 9 12 13 12 11 10 9 5 3 4 5 5 8 5 1 1 2 5 7 9 9 6 4 3 2 3 5 6 6 7 8 10 15 18 17 17 18 21 22 20 18 16 15 12 8 5 5 4 2 6 5 5 6 5 3 6 9 12 15 17 19 21 22 23 24 24
9 7 7 7 7 9 9 8 8 8 7 8 11 12 13 14 15 13 9 7 8 10 11 12 12 10 8 8 8 7 5 5 6 6 6 3 3 5 2 2 4 4 5 4 4 3 4 3 4 5 6 7 10 12 14 15 14 13 15 18 20 19 17 17 16 13 10 8 6 2 3 5 4 4 6 5 4 5 8 11 13 16 19 20 20 22 23 24
Wind_Direction
348 348 349 348 350 348 345 344 343 345 342 340 340 338 340 340 338 338 338 336 336 338 335 336 335 334 334 331 345 353 342 345 340 324 298 266 268 281 282 277 275 272 265 257 255 260 259 252 242 231 228 225 223 225 224 223 222 223 228 231 236 234 234 237 235 241 246 245 238 236 240 228 210 224 227 225 219 236 245 243 233 219 227 236 163 141 179 234
344 345 345 343 345 343 341 341 341 341 339 337 336 334 334 333 333 332 333 332 333 334 333 334 331 333 332 331 343 346 342 341 320 299 267 264 280 307 321 308 292 278 268 263 265 262 253 246 235 224 220 225 222 218 221 218 217 220 225 229 234 235 237 238 237 241 247 251 244 239 243 230 215 235 237 232 221 225 240 238 228 222 222 209 173 166 192 232
343 341 339 339 339 336 336 337 335 334 333 331 330 330 330 328 329 328 328 329 330 331 332 330 329 330 328 332 339 342 343 328 309 278 245 266 290 336 344 335 311 293 281 274 271 258 250 246 238 226 220 226 223 217 218 214 214 219 224 233 234 235 240 238 237 241 243 249 249 242 246 235 215 228 238 247 238 228 237 234 225 221 219 207 178 168 187 217
341 339 336 336 333 331 331 330 330 329 329 328 328 329 328 327 325 325 326 326 327 326 326 324 324 326 325 331 336 345 336 310 299 191 221 268 303 323 332 328 304 298 306 283 271 257 249 245 240 232 225 227 224 220 220 213 212 218 224 236 237 235 238 236 237 243 241 244 248 244 247 240 220 219 226 244 248 233 236 241 236 228 227 210 177 170 183 203
339 339 336 333 329 327 326 326 328 326 326 328 328 328 326 327 324 325 326 323 324 321 321 320 320 322 323 330 341 350 326 300 100 162 244 289 301 311 320 314 296 291 312 292 270 255 242 237 234 232 229 229 222 221 222 217 216 222 228 235 238 238 239 237 236 241 241 240 244 242 240 239 234 233 227 232 245 243 232 240 246 241 233 200 165 173 182 189
337 335 332 331 328 326 324 323 321 319 325 328 326 325 322 322 320 320 319 317 319 319 318 318 319 319 321 328 341 338 305 297 53 249 279 302 299 305 309 308 309 303 313 296 270 249 234 228 226 224 226 229 223 222 222 217 219 228 233 233 236 238 241 242 238 237 240 238 238 239 235 235 239 243 239 232 240 251 241 241 260 262 232 192 174 185 183 183
334 332 331 330 328 325 323 320 317 319 326 327 324 320 316 313 312 309 309 310 312 311 312 314 317 315 317 326 332 314 269 279 309 274 281 294 296 298 292 302 314 303 303 290 268 242 229 225 224 222 224 227 226 225 223 219 221 228 234 232 233 235 237 241 242 242 243 239 236 237 233 230 236 245 248 244 241 248 245 245 256 261 228 195 193 192 184 186
333 332 331 329 327 323 322 320 318 321 324 323 320 315 310 306 304 304 305 307 306 305 305 309 311 310 316 326 327 308 275 276 283 279 284 287 292 288 281 286 289 287 286 279 264 247 237 230 226 223 227 229 228 227 224 223 224 227 232 234 234 235 234 236 240 242 245 243 235 233 229 230 238 248 253 250 244 240 240 246 239 222 231 229 216 202 183 184
333 331 330 328 326 323 322 319 317 321 322 318 315 310 306 302 301 304 306 307 304 303 304 307 306 305 314 317 308 298 283 269 250 261 279 286 295 285 280 275 264 277 277 267 259 251 241 236 231 226 233 236 233 231 224 224 224 223 229 234 235 235 232 232 234 233 237 238 229 230 231 236 241 248 254 250 243 236 234 243 232 215 231 235 229 206 182 185
331 329 329 327 325 322 318 316 315 317 315 312 311 309 306 303 300 301 302 303 301 300 301 302 303 305 308 297 290 284 265 258 260 259 260 281 291 285 285 265 255 273 269 261 255 246 240 241 238 234 242 244 241 237 227 226 227 225 229 231 233 235 232 230 229 226 227 228 225 231 235 239 243 245 250 243 239 239 235 238 227 217 228 229 228 201 183 190
327 325 326 325 322 320 316 313 313 312 310 308 309 308 308 305 301 298 297 298 297 296 296 297 299 300 297 283 269 261 261 266 272 264 266 281 277 271 274 260 256 265 260 259 253 247 247 245 244 246 245 240 241 243 236 232 231 231 232 230 228 232 234 226 223 222 222 225 225 232 242 243 244 243 241 238 237 236 233 233 221 221 228 224 220 195 184 192
324 323 322 321 319 317 315 314 313 312 311 308 306 307 307 305 302 298 296 296 294 292 290 290 293 290 288 274 255 252 268 274 270 269 272 274 271 266 264 259 255 256 253 254 251 249 252 245 244 245 240 239 238 241 244 235 230 230 229 231 224 226 231 218 214 221 221 225 223 227 243 241 238 237 237 239 236 231 232 227 217 223 225 220 212 192 188 193
321 320 318 318 317 314 312 312 311 310 309 307 304 303 303 306 304 300 296 295 291 288 288 289 288 281 273 263 254 259 272 273 271 271 270 267 268 265 261 257 251 251 248 246 248 248 250 247 242 241 244 256 240 230 254 236 228 226 220 226 224 222 225 211 211 222 220 222 218 217 237 236 231 232 236 235 226 231 233 218 218 226 221 219 212 194 193 192
318 317 316 314 311 311 310 310 309 305 305 304 301 300 304 309 307 302 295 292 290 286 288 290 286 271 260 261 266 270 265 267 269 266 266 264 262 261 257 251 246 245 243 242 244 243 248 249 243 243 245 252 248 241 255 234 221 221 218 218 221 223 218 205 209 219 217 215 212 213 233 236 231 229 230 227 218 226 228 212 220 225 213 217 213 198 195 190
315 314 314 310 304 306 309 310 307 302 304 304 301 303 307 310 306 299 293 291 291 286 286 288 277 260 262 268 275 273 260 259 263 262 262 254 250 252 248 243 239 237 238 240 240 237 242 244 238 239 237 239 251 253 245 225 213 211 215 211 214 222 215 205 208 213 212 209 207 212 232 236 237 234 225 218 212 219 221 213 218 217 207 210 210 200 194 189
314 314 315 314 308 305 309 313 309 303 306 306 305 306 309 309 300 295 294 292 287 282 280 273 253 244 267 281 275 263 256 250 254 256 247 239 238 242 240 235 232 228 231 234 233 231 231 235 235 233 232 230 237 240 222 215 208 205 214 212 209 214 218 209 202 205 208 208 205 211 230 235 235 238 228 214 203 210 220 217 215 215 207 205 206 199 192 188
319 318 319 320 316 313 313 316 314 310 310 310 309 309 311 307 296 294 298 298 289 277 262 251 255 248 251 267 271 265 259 243 238 236 230 230 231 233 229 224 226 227 230 229 225 225 223 224 229 228 226 222 220 218 211 209 204 200 209 217 214 210 217 215 198 196 201 209 210 212 226 237 235 232 230 220 200 201 216 217 213 215 209 203 206 198 191 188
322 319 318 318 319 319 316 315 317 316 313 315 314 311 316 311 300 299 299 305 289 247 249 239 239 254 244 240 247 265 271 242 221 224 233 231 224 224 222 223 228 229 229 224 216 215 216 218 220 218 214 214 214 212 210 208 203 200 202 209 216 212 213 216 208 189 194 208 215 214 218 229 237 230 231 226 201 195 210 212 213 216 210 203 203 196 192 191
323 320 318 316 316 315 316 317 317 316 316 319 317 317 325 310 285 278 258 255 226 219 255 222 201 229 276 264 256 265 271 252 237 244 240 228 221 219 221 226 230 227 224 218 206 206 207 213 216 215 208 206 209 210 214 215 210 207 206 207 212 214 211 214 215 188 187 205 213 218 217 218 228 228 235 226 193 191 206 208 215 216 209 203 199 194 192 193
325 324 320 318 315 311 316 318 314 315 317 319 321 324 329 311 283 257 209 231 240 244 265 256 229 246 275 281 276 273 262 239 237 252 244 226 220 222 224 226 226 225 223 219 204 198 204 213 212 213 211 206 208 212 217 223 224 216 210 211 210 216 213 207 215 193 182 204 214 215 218 216 220 221 231 219 183 192 207 208 214 212 207 204 198 193 193 193
324 322 320 319 317 313 316 315 313 317 317 319 323 318 323 328 313 307 299 280 266 259 264 267 262 263 270 276 278 277 266 248 237 242 241 226 221 225 224 218 222 224 218 220 212 195 204 218 214 213 214 210 209 212 216 222 231 227 215 213 208 215 216 201 211 199 181 202 216 211 217 218 216 216 222 213 190 200 208 209 212 205 202 202 197 194 192 188
322 319 318 317 318 318 315 312 315 320 317 320 317 293 307 325 313 305 306 292 278 269 265 268 269 267 268 271 271 267 261 257 248 244 238 225 219 220 219 213 222 230 217 216 214 199 205 220 218 213 213 213 208 207 213 219 227 231 221 218 208 209 214 201 205 199 183 201 216 208 215 220 215 216 217 210 203 207 208 212 211 201 199 199 195 191 188 181
320 320 321 319 319 320 314 313 322 330 328 319 288 286 298 310 306 299 297 288 285 279 267 264 265 262 262 262 260 252 247 249 251 245 229 220 221 220 224 223 220 227 221 211 210 208 206 214 219 215 210 211 207 204 209 216 222 224 217 220 211 200 206 201 197 195 187 200 218 210 212 222 216 215 218 212 207 207 208 213 211 203 199 198 195 187 181 179
323 323 322 321 320 318 313 318 334 352 339 305 285 290 294 301 304 307 301 283 284 283 262 255 266 259 257 262 253 242 244 245 249 245 223 216 224 221 224 231 221 223 227 215 211 216 216 211 212 216 213 207 206 204 204 210 215 213 217 223 211 200 205 202 188 192 191 198 215 216 210 219 216 212 215 213 210 205 204 209 209 205 201 200 198 188 179 180
325 323 322 320 318 314 314 327 353 349 313 302 294 294 290 300 305 310 310 285 277 263 208 204 237 231 245 269 253 242 252 249 243 244 227 216 220 220 220 226 224 223 228 220 214 216 222 217 207 211 214 205 205 205 199 205 207 205 218 226 216 201 199 196 185 187 194 197 205 214 216 212 210 213 211 208 210 205 200 205 205 203 201 201 200 192 184 182
326 323 321 316 311 311 317 329 332 301 314 308 300 296 286 302 305 308 309 280 273 197 163 184 212 215 249 249 231 245 263 255 235 232 228 215 216 222 225 220 219 224 228 223 217 215 219 222 213 206 208 203 205 206 197 201 207 201 210 218 216 203 193 197 192 187 199 201 193 205 223 215 201 211 210 204 207 203 197 202 203 201 200 199 199 194 187 185
328 323 319 314 310 310 305 294 292 303 306 299 301 299 296 300 295 313 300 257 254 216 120 140 205 251 263 245 218 234 265 271 213 214 215 212 211 218 228 222 214 218 226 223 219 213 209 216 214 204 204 200 202 205 194 197 208 200 196 205 214 210 197 199 197 190 201 201 189 199 218 232 212 205 203 203 206 201 197 200 201 200 199 197 197 193 188 188
330 325 323 321 317 307 283 271 285 295 285 284 288 286 294 294 290 305 281 269 279 116 313 60 178 262 255 258 242 237 256 278 224 196 199 210 211 212 223 227 223 217 217 224 222 211 206 209 209 203 202 197 199 203 194 196 206 201 191 197 216 219 203 199 199 194 197 201 199 197 205 228 234 203 194 198 206 202 196 198 199 198 197 194 195 194 191 191
332 331 332 334 338 339 311 275 269 267 275 284 272 271 291 291 292 280 246 268 3 101 322 335 242 266 256 259 244 237 248 254 250 173 195 210 212 214 223 226 233 232 220 225 229 220 208 201 205 205 199 194 199 202 197 194 200 202 193 192 211 225 206 200 204 196 194 210 213 196 195 213 235 214 193 195 204 202 194 195 196 195 193 192 195 195 194 192
334 338 342 354 7 7 1 320 276 266 265 269 252 266 297 286 268 256 239 246 337 44 44 254 265 300 277 259 249 240 244 243 240 235 215 207 206 216 231 233 239 244 224 221 228 237 218 195 203 208 198 197 197 200 200 193 198 206 196 188 202 219 203 200 208 199 199 215 216 201 195 204 226 222 201 195 198 195 191 193 193 192 190 189 192 195 194 192
335 345 353 10 23 4 359 25 344 295 253 253 267 285 292 275 232 257 264 237 282 274 66 285 302 313 288 266 262 238 239 241 230 223 214 201 199 207 222 233 234 234 227 218 214 230 221 192 198 206 203 206 198 197 199 191 200 212 197 182 193 200 197 200 202 203 212 214 212 208 198 200 217 223 205 191 191 195 196 194 191 190 189 188 189 192 193 191
331 346 355 11 20 354 341 347 337 301 250 241 264 280 283 270 232 258 297 328 290 290 19 309 298 304 294 276 266 228 229 230 211 219 216 198 198 199 207 219 212 207 218 208 187 198 209 195 198 200 204 214 205 194 191 185 200 212 193 182 190 188 190 198 192 199 217 213 206 207 203 203 215 228 219 188 182 195 201 197 193 189 188 188 189 190 190 189
326 342 347 7 8 346 302 303 307 282 236 226 250 260 266 274 266 289 318 329 319 356 324 293 282 291 289 272 261 233 240 227 192 213 220 202 202 201 209 219 217 217 214 190 179 181 192 197 204 199 198 216 217 199 182 180 197 204 189 186 189 183 183 190 193 199 208 210 204 202 204 211 211 221 232 203 177 190 200 198 193 189 189 189 188 187 185 185
330 357 357 7 353 323 278 292 303 265 205 209 246 253 256 265 275 312 319 319 313 304 296 290 290 289 271 251 253 216 230 230 193 204 212 203 207 204 211 219 221 230 229 193 187 183 184 185 202 202 187 200 215 207 186 183 193 196 191 194 194 189 185 185 193 198 194 198 200 196 200 215 205 202 223 216 176 185 197 197 191 187 190 189 186 185 182 182
11 10 6 9 347 321 299 292 278 263 209 215 254 255 259 273 294 323 321 324 338 309 297 296 292 286 262 231 241 221 220 225 200 205 210 202 203 206 219 221 217 229 235 209 189 185 197 179 184 199 191 188 202 207 194 187 189 191 193 200 200 193 184 187 202 197 188 192 195 194 200 208 203 189 206 196 169 185 197 195 188 185 188 187 185 184 179 179
28 3 330 350 341 313 293 277 227 222 242 245 264 262 276 294 313 328 331 351 312 285 300 303 286 281 281 213 227 216 207 241 210 207 213 206 202 203 221 231 215 216 225 219 183 185 207 173 168 189 193 188 195 201 197 192 187 187 193 200 204 197 183 185 198 185 186 200 193 195 202 192 179 190 196 180 168 184 195 191 186 185 185 185 183 181 177 176
0 336 276 324 335 308 280 266 217 213 242 241 260 278 296 299 300 304 283 282 297 278 292 305 288 316 328 283 231 183 171 217 215 206 203 200 201 200 215 238 223 213 221 230 216 202 210 161 165 184 187 185 194 201 203 201 194 189 192 195 201 202 188 184 194 179 187 203 191 192 200 192 184 189 192 183 176 181 187 187 186 184 182 182 181 179 176 174
341 302 258 319 341 320 275 234 207 220 237 238 261 276 286 296 299 294 282 290 302 244 250 279 265 308 322 322 319 162 163 187 200 208 202 181 188 199 208 228 221 213 225 233 239 227 217 171 170 186 184 179 190 202 202 201 200 200 200 196 198 202 189 184 191 183 186 195 190 192 198 200 195 181 177 183 182 180 181 183 185 183 182 182 180 176 174 173
336 278 248 284 359 344 241 205 221 236 240 254 284 290 295 308 311 310 314 324 247 220 243 272 260 240 240 302 318 143 164 198 193 197 193 164 174 201 205 217 210 207 222 227 232 237 217 184 171 184 183 174 184 203 195 190 199 203 202 202 203 205 199 190 186 188 191 189 186 193 196 204 205 177 169 178 184 181 177 180 185 182 180 180 174 169 170 175
312 269 227 101 11 355 251 241 251 244 247 274 297 304 307 313 314 312 317 317 215 231 243 267 276 277 278 270 275 247 176 211 196 185 189 169 170 196 201 212 213 204 213 219 228 244 220 197 180 177 178 177 180 197 197 186 189 193 192 196 196 191 199 198 191 198 201 191 187 192 197 206 207 180 171 179 188 183 176 179 181 178 179 179 172 168 168 176
296 273 150 31 347 331 287 260 246 250 270 295 302 305 303 306 307 308 314 295 202 238 251 268 281 281 286 283 284 292 228 216 198 183 193 182 180 197 199 205 217 204 200 209 220 221 211 216 197 174 174 186 181 187 203 196 189 193 191 192 193 185 189 193 188 196 202 199 194 190 196 205 197 178 170 178 186 184 178 180 177 175 181 181 176 173 173 181
300 294 350 325 329 325 290 269 272 287 311 320 311 305 300 300 295 301 312 276 196 226 247 267 274 272 286 289 269 267 246 239 220 199 203 196 192 203 195 197 213 211 199 209 210 196 202 242 202 177 174 184 177 182 208 205 194 200 202 195 192 185 193 196 183 187 196 198 196 188 195 196 169 153 150 167 179 182 179 179 177 176 181 182 178 174 176 184
324 347 341 318 327 326 284 287 334 334 338 330 316 310 307 304 296 300 311 306 229 191 198 271 287 264 259 256 258 253 205 250 262 225 204 212 206 201 189 191 209 216 203 213 203 175 193 246 199 179 170 175 174 180 204 205 195 199 206 202 195 189 201 207 187 188 198 196 194 187 185 169 137 135 137 152 170 179 178 177 175 175 178 178 171 167 175 182
312 299 307 311 324 322 298 328 348 337 329 329 324 319 317 320 321 313 315 323 326 204 187 260 291 260 249 261 272 261 210 233 257 226 206 221 203 192 190 190 203 212 198 214 211 167 187 249 199 179 164 165 175 179 192 199 196 197 198 198 195 193 204 208 182 186 200 191 190 189 179 151 126 147 171 170 174 178 175 176 179 178 173 168 162 163 176 179
299 286 313 311 264 267 285 323 335 325 328 329 325 326 330 334 334 329 324 325 335 335 289 248 271 275 275 283 267 259 251 250 249 231 244 249 199 183 190 187 195 206 190 202 253 197 196 257 210 187 168 164 175 179 182 189 191 193 193 194 195 196 202 202 169 182 196 190 192 197 166 142 139 168 185 188 188 176 165 175 180 174 165 160 158 166 176 173
313 326 347 335 296 266 260 271 307 322 334 332 325 329 337 335 333 338 340 335 346 343 329 302 288 297 289 275 262 243 230 242 260 268 256 238 204 176 180 184 195 202 174 183 245 230 200 210 220 214 188 170 172 181 184 186 190 192 190 192 198 199 199 199 190 185 186 186 186 143 118 144 154 170 175 182 193 178 164 174 172 161 157 156 157 166 170 165
322 336 351 340 311 291 291 307 335 338 331 328 325 324 331 333 334 341 344 340 344 339 326 286 346 340 324 310 297 263 208 206 227 253 264 249 209 163 169 186 197 183 159 196 230 234 203 198 220 229 210 180 173 181 185 188 194 194 188 189 198 202 198 198 202 182 171 181 163 95 101 139 144 152 159 167 186 182 170 171 164 159 161 161 163 170 167 162
353 344 355 348 301 306 340 331 323 318 312 320 326 323 330 336 338 339 337 328 330 335 334 313 338 344 336 325 317 316 345 156 180 218 300 272 214 161 164 188 191 168 170 207 213 212 238 216 219 234 226 200 183 180 184 192 196 193 191 192 194 199 199 198 200 181 160 160 128 95 95 104 99 115 137 145 177 181 172 169 162 161 164 165 169 173 168 164
1 337 356 358 311 296 295 288 288 290 298 324 338 335 336 336 335 336 330 317 318 328 345 326 321 334 330 316 312 326 6 23 120 87 335 258 199 163 163 184 184 176 191 211 202 192 288 252 219 229 232 226 210 184 179 191 196 190 193 194 188 193 201 198 197 186 148 102 87 96 98 85 70 56 79 76 151 170 165 167 163 163 167 168 170 172 170 168
3 341 340 333 311 294 288 287 292 295 317 350 346 340 337 331 332 333 320 305 301 301 325 323 312 321 321 310 311 322 42 348 323 335 333 288 174 164 173 184 183 181 190 211 208 179 353 240 217 223 223 228 227 191 175 185 194 190 193 194 189 194 201 198 195 197 178 95 82 210 124 99 73 50 76 75 100 156 157 164 166 169 172 171 171 172 171 170
356 326 318 318 310 300 304 313 319 324 350 357 343 339 337 333 335 331 318 309 297 292 311 316 309 311 311 306 314 335 5 332 310 327 348 4 75 253 214 188 196 187 184 208 220 179 201 246 230 225 212 208 214 193 178 183 190 191 193 194 191 192 197 198 199 206 211 202 210 236 162 105 75 54 83 99 138 159 162 166 168 171 172 172 173 171 168 168
348 336 327 317 294 286 298 314 328 341 352 347 343 340 335 335 337 334 330 332 323 313 302 296 303 314 312 316 336 350 341 319 311 326 349 12 346 327 331 203 236 220 194 227 265 218 204 231 242 222 197 191 197 189 179 181 190 197 196 194 192 190 193 200 204 208 214 212 213 215 106 87 51 42 68 88 131 163 167 168 170 170 169 172 173 170 168 168